When you browse on this site, cookies collect data to enhance your experience and personalize the content and advertising you see.
Visit our Privacy Policy to learn more. By continuing to use the site, you agree to this use of cookies and data.
  • In Czech Republic
  • List of Countries
  • For 7 days
  • Water Temperature
  • Satellite Maps
  • Weather Map
  • Weather Widgets
  • user-avatar
    Login

    Hourly Weather Knighton

    Today, 21 January, Monday

    Time Temperature Precipitation Wind Pressure Humidity
    00:00 +3°C° 0 mm 1 mps 738 mmHg 94%
    01:00 +2°C° 0 mm 0 mps 738 mmHg 94%
    02:00 +2°C° 0 mm 0 mps 738 mmHg 94%
    03:00 +2°C° 0 mm 0 mps 737 mmHg 94%
    04:00 +3°C° 0 mm 1 mps 737 mmHg 94%
    05:00 +3°C° 0 mm 1 mps 737 mmHg 94%
    06:00 +2°C° 0 mm 1 mps 737 mmHg 94%
    07:00 +2°C° 0 mm 1 mps 737 mmHg 95%
    08:00 +1°C° 0 mm 2 mps 737 mmHg 95%
    09:00 +1°C° 0 mm 2 mps 736 mmHg 95%
    10:00 +1°C° 0 mm 3 mps 736 mmHg 92%
    11:00 +1°C° 0 mm 4 mps 736 mmHg 88%
    12:00 +2°C° 0 mm 5 mps 735 mmHg 85%
    13:00 +3°C° 0 mm 4 mps 734 mmHg 86%
    14:00 +3°C° 0 mm 4 mps 733 mmHg 88%
    15:00 +3°C° 0 mm 4 mps 732 mmHg 89%
    16:00 +1°C° 0 mm 4 mps 731 mmHg 90%
    17:00 +1°C° 0 mm 5 mps 730 mmHg 90%
    18:00 +1°C° 0 mm 5 mps 728 mmHg 90%
    19:00 +1°C° 0.4 mm 6 mps 727 mmHg 90%
    20:00 +2°C° 0.4 mm 7 mps 726 mmHg 90%
    21:00 +1°C° 0.4 mm 8 mps 725 mmHg 89%
    22:00 0°C° 1.4 mm 7 mps 725 mmHg 86%
    23:00 +1°C° 1.4 mm 6 mps 724 mmHg 83%

    Tomorrow, 22 January, Tuesday

    Time Temperature Precipitation Wind Pressure Humidity
    00:00 -1°C° 1.4 mm 6 mps 723 mmHg 80%
    01:00 -1°C° 0 mm 5 mps 723 mmHg 81%
    02:00 -2°C° 0 mm 5 mps 723 mmHg 82%
    03:00 -2°C° 0 mm 4 mps 723 mmHg 83%
    04:00 -2°C° 0 mm 4 mps 723 mmHg 84%
    05:00 -3°C° 0 mm 4 mps 723 mmHg 84%
    06:00 -4°C° 0 mm 5 mps 722 mmHg 85%
    07:00 -3°C° 0 mm 4 mps 722 mmHg 85%
    08:00 -2°C° 0 mm 3 mps 722 mmHg 86%
    09:00 -2°C° 0 mm 3 mps 721 mmHg 86%
    10:00 -2°C° 0.2 mm 4 mps 721 mmHg 83%
    11:00 -1°C° 0.2 mm 5 mps 721 mmHg 80%
    12:00 -1°C° 0.2 mm 6 mps 721 mmHg 76%
    13:00 -1°C° 0.2 mm 6 mps 720 mmHg 77%
    14:00 0°C° 0.2 mm 5 mps 720 mmHg 77%
    15:00 -1°C° 0.2 mm 5 mps 720 mmHg 77%
    16:00 -2°C° 0.1 mm 5 mps 720 mmHg 80%
    17:00 -2°C° 0.1 mm 4 mps 720 mmHg 83%
    18:00 -2°C° 0.1 mm 3 mps 720 mmHg 86%
    19:00 -4°C° 0 mm 3 mps 720 mmHg 86%
    20:00 -4°C° 0 mm 3 mps 720 mmHg 87%
    21:00 -4°C° 0 mm 3 mps 720 mmHg 87%
    22:00 -4°C° 0 mm 3 mps 720 mmHg 87%
    23:00 -4°C° 0 mm 3 mps 721 mmHg 86%

    Day after tomorrow, 23 January, Wednesday

    Time Temperature Precipitation Wind Pressure Humidity
    00:00 -4°C° 0 mm 3 mps 721 mmHg 86%
    01:00 -4°C° 0 mm 3 mps 721 mmHg 86%
    02:00 -4°C° 0 mm 3 mps 721 mmHg 86%
    03:00 -4°C° 0 mm 3 mps 722 mmHg 86%
    04:00 -4°C° 0 mm 3 mps 722 mmHg 87%
    05:00 -4°C° 0 mm 3 mps 722 mmHg 87%
    06:00 -4°C° 0 mm 3 mps 723 mmHg 88%
    07:00 -4°C° 0 mm 3 mps 723 mmHg 88%
    08:00 -4°C° 0 mm 3 mps 724 mmHg 88%
    09:00 -3°C° 0 mm 2 mps 725 mmHg 88%
    10:00 -2°C° 0 mm 3 mps 725 mmHg 83%
    11:00 0°C° 0 mm 3 mps 726 mmHg 78%
    12:00 +1°C° 0 mm 3 mps 726 mmHg 73%
    13:00 +1°C° 0 mm 3 mps 727 mmHg 74%
    14:00 +2°C° 0 mm 2 mps 727 mmHg 76%
    15:00 +2°C° 0 mm 2 mps 727 mmHg 78%
    16:00 +2°C° 0 mm 1 mps 728 mmHg 81%
    17:00 +1°C° 0 mm 1 mps 728 mmHg 84%
    18:00 0°C° 0 mm 1 mps 729 mmHg 87%
    19:00 0°C° 0 mm 1 mps 729 mmHg 87%
    20:00 0°C° 0 mm 1 mps 729 mmHg 88%
    21:00 0°C° 0 mm 1 mps 730 mmHg 88%
    22:00 0°C° 0 mm 1 mps 730 mmHg 88%
    23:00 -2°C° 0 mm 2 mps 730 mmHg 88%

    24 January, Thursday

    Time Temperature Precipitation Wind Pressure Humidity
    00:00 -3°C° 0 mm 2 mps 730 mmHg 89%
    01:00 -2°C° 0.1 mm 2 mps 730 mmHg 88%
    02:00 -2°C° 0.1 mm 2 mps 730 mmHg 87%
    03:00 -1°C° 0.1 mm 2 mps 729 mmHg 87%
    04:00 -1°C° 0.5 mm 3 mps 729 mmHg 89%
    05:00 0°C° 0.5 mm 3 mps 729 mmHg 92%
    06:00 0°C° 0.5 mm 4 mps 729 mmHg 95%
    07:00 0°C° 0.3 mm 4 mps 729 mmHg 95%
    08:00 +1°C° 0.3 mm 4 mps 729 mmHg 96%
    09:00 +3°C° 0.3 mm 4 mps 729 mmHg 97%
    10:00 +4°C° 0.2 mm 4 mps 729 mmHg 97%
    11:00 +5°C° 0.2 mm 4 mps 729 mmHg 97%
    12:00 +5°C° 0.2 mm 4 mps 729 mmHg 97%
    13:00 +6°C° 0 mm 5 mps 729 mmHg 96%
    14:00 +6°C° 0 mm 5 mps 729 mmHg 95%
    15:00 +7°C° 0 mm 6 mps 729 mmHg 94%
    16:00 +7°C° 0.1 mm 6 mps 729 mmHg 94%
    17:00 +5°C° 0.1 mm 6 mps 729 mmHg 94%
    18:00 +5°C° 0.1 mm 6 mps 730 mmHg 94%
    19:00 +6°C° 0 mm 5 mps 730 mmHg 94%
    20:00 +6°C° 0 mm 5 mps 731 mmHg 94%
    21:00 +6°C° 0 mm 5 mps 731 mmHg 94%
    22:00 +6°C° 0 mm 5 mps 731 mmHg 94%
    23:00 +5°C° 0 mm 5 mps 731 mmHg 95%

    25 January, Friday

    Time Temperature Precipitation Wind Pressure Humidity
    00:00 +5°C° 0 mm 4 mps 731 mmHg 95%
    01:00 +5°C° 0 mm 4 mps 731 mmHg 95%
    02:00 +5°C° 0 mm 4 mps 731 mmHg 95%
    03:00 +5°C° 0 mm 5 mps 731 mmHg 95%
    04:00 +5°C° 0 mm 5 mps 731 mmHg 95%
    05:00 +3°C° 0 mm 5 mps 731 mmHg 95%
    06:00 +3°C° 0 mm 5 mps 731 mmHg 95%
    07:00 +3°C° 0 mm 5 mps 731 mmHg 94%
    08:00 +3°C° 0 mm 5 mps 731 mmHg 94%
    09:00 +3°C° 0 mm 5 mps 731 mmHg 94%
    10:00 +5°C° 0 mm 5 mps 731 mmHg 89%
    11:00 +5°C° 0 mm 6 mps 731 mmHg 85%
    12:00 +7°C° 0 mm 6 mps 731 mmHg 80%
    13:00 +7°C° 0 mm 6 mps 730 mmHg 81%
    14:00 +7°C° 0 mm 6 mps 729 mmHg 83%
    15:00 +5°C° 0 mm 6 mps 729 mmHg 84%
    16:00 +7°C° 0 mm 6 mps 728 mmHg 87%
    17:00 +6°C° 0 mm 7 mps 728 mmHg 89%
    18:00 +6°C° 0 mm 7 mps 728 mmHg 92%
    19:00 +6°C° 0.1 mm 7 mps 727 mmHg 92%
    20:00 +6°C° 0.1 mm 7 mps 727 mmHg 92%
    21:00 +6°C° 0.1 mm 7 mps 726 mmHg 92%
    22:00 +6°C° 0 mm 7 mps 725 mmHg 91%
    23:00 +6°C° 0 mm 8 mps 724 mmHg 90%

    26 January, Saturday

    Time Temperature Precipitation Wind Pressure Humidity
    00:00 +7°C° 0 mm 9 mps 723 mmHg 90%
    01:00 +7°C° 0.7 mm 9 mps 723 mmHg 90%
    02:00 +7°C° 0.7 mm 9 mps 722 mmHg 90%
    03:00 +7°C° 0.7 mm 9 mps 721 mmHg 91%
    04:00 +6°C° 0.2 mm 8 mps 721 mmHg 90%
    05:00 +5°C° 0.2 mm 7 mps 721 mmHg 90%
    06:00 +4°C° 0.2 mm 6 mps 721 mmHg 90%
    07:00 +3°C° 0 mm 6 mps 722 mmHg 88%
    08:00 +2°C° 0 mm 5 mps 722 mmHg 87%
    09:00 +1°C° 0 mm 5 mps 723 mmHg 85%
    10:00 +2°C° 0.1 mm 5 mps 724 mmHg 82%
    11:00 +2°C° 0.1 mm 6 mps 724 mmHg 78%
    12:00 +3°C° 0.1 mm 7 mps 725 mmHg 74%
    13:00 +3°C° 0.1 mm 7 mps 725 mmHg 74%
    14:00 +2°C° 0.1 mm 7 mps 725 mmHg 74%
    15:00 +2°C° 0.1 mm 7 mps 725 mmHg 74%
    16:00 +1°C° 0 mm 6 mps 725 mmHg 77%
    17:00 0°C° 0 mm 5 mps 725 mmHg 80%
    18:00 -1°C° 0 mm 4 mps 726 mmHg 83%
    19:00 -1°C° 0 mm 4 mps 726 mmHg 83%
    20:00 -1°C° 0 mm 4 mps 726 mmHg 83%
    21:00 -1°C° 0 mm 4 mps 726 mmHg 84%
    22:00 -2°C° 0 mm 4 mps 726 mmHg 85%
    23:00 -2°C° 0 mm 4 mps 726 mmHg 86%
    Show more